Regional Weather Roundup
Issued by NWS

Home | Current Version | Previous Version | Text Only | Print | Product List | Glossary Off
Versions: 1 2 3 4 5 6 7 8 9 10 11 12 13 14 15 16 17 18 19 20 21 22 23 24 25 26 27

000
ASUS45 KBOU 200310
RWRCO

WEATHER ROUNDUP FOR COLORADO
NATIONAL WEATHER SERVICE DENVER/BOULDER CO
800 PM MST SUN NOV 19 2017

NOTE: "FAIR" INDICATES FEW OR NO CLOUDS BELOW 12000 FEET WITH NO
SIGNIFICANT WEATHER AND/OR OBSTRUCTIONS TO VISIBILITY.

COZ001>005-013-030-031-200400-
...NORTHWEST COLORADO...

CITY           SKY/WX    TMP DP  RH WIND       PRES   REMARKS
CRAIG          FAIR      17  12  80 W3        30.17R
HAYDEN         FAIR      23  14  68 SE3       30.18R
MEEKER         FAIR      26  17  68 CALM      30.18R
RABBIT EARS PA FAIR      21  10  63 W10G16    30.17S WCI  10
STEAMBOAT SPGS FAIR      24  17  73 CALM      30.16R
WALDEN         FAIR      27   7  43 SW15      30.11F WCI  15
$$

COZ006>008-011-200400-
...WEST CENTRAL VALLEYS...

CITY           SKY/WX    TMP DP  RH WIND       PRES   REMARKS
GRAND JUNCTION FAIR      30  14  51 N5        30.22R WCI  25
MONTROSE       FAIR      26  19  74 SE7       30.23R WCI  18
EAGLE          FAIR      26  19  74 S5        30.22R WCI  20
RIFLE          FAIR      27  21  78 SW3       30.22R
DELTA          FAIR      31  17  55 CALM      30.21R
NUCLA          FAIR      32   9  37 E12       30.24R WCI  23
$$

COZ017>023-064>068-200400-
...SOUTHWEST COLORADO...

CITY           SKY/WX    TMP DP  RH WIND       PRES   REMARKS
DURANGO        FAIR      29  14  53 N9        30.21R WCI  20
CORTEZ         FAIR      22  12  65 NE8       30.23R WCI  12
PAGOSA SPRINGS FAIR      29  15  57 CALM      30.21S
TELLURIDE      FAIR      30   6  36 SE3       30.26R
WOLF CREEK PAS FAIR      23   7  50 SW10      30.32S WCI  12
$$

COZ009-010-012-014-032>034-037-058>063-200400-
...CENTRAL COLORADO...

CITY           SKY/WX    TMP DP  RH WIND       PRES   REMARKS
ASPEN          FAIR      22  15  75 SW10      30.19R WCI  11
BUENA VISTA    FAIR      34   6  31 NW16G23   30.14S WCI  23
COPPER MTN     FAIR      25  -8  24 MISG      30.22S
BERTHOUD PASS  FAIR      16   5  62 NW37G44   30.13R WCI  -6
COTTONWOOD PAS FAIR      37 -13  11 W16G24    30.17F
GUNNISON       FAIR      19  14  81 CALM      30.25R
KREMMLING      FAIR      34  18  51 NW3       30.16R
LEADVILLE      FAIR      17   3  54 E5        30.18R WCI  10
MONARCH PASS   FAIR      21   1  42 W28       30.33R WCI   3
SALIDA         FAIR      40   2  20 W9G17     30.21S
SUNLIGHT       FAIR      21   0  39 SW9G20    30.27R WCI  11
WILKERSON PASS MOCLDY    27  -9  20 W10G20    30.19S WCI  17
$$

COZ069>075-200400-
...SAN LUIS VALLEY/SANGRE DE CRISTO MOUNTAINS...

CITY           SKY/WX    TMP DP  RH WIND       PRES   REMARKS
ALAMOSA        FAIR      26   8  46 NW5       30.16F WCI  20
DEL NORTE      FAIR      24   5  43 SW3       30.19S
LA VETA PASS   FAIR      28   1  31 SW29G40     N/A  WCI  13
SAGUACHE       FAIR      25   1  36 N6        30.19S WCI  18
$$

COZ035-036-038>040-200400-
...NORTHERN COLORADO FRONT RANGE...

CITY           SKY/WX    TMP DP  RH WIND       PRES   REMARKS
DENVER INTL AP MOCLDY    47   9  21 W8        29.97S
DMNS CITY PARK   N/A     52  -3  10 W7        29.97F
AURORA         MOCLDY    40  17  38 SW7       29.99R
FRONT RANGE AP MOCLDY    48  14  25 S7G18     29.99R
ERIE MUNI ARPT FAIR      51  -3  11 SW6       30.01S
BOULDER MUN AP FAIR      50   3  14 W9        29.96F
CENTENNIAL     MOCLDY    45  11  25 S9        29.99F
BROOMFIELD     MOCLDY    48   0  13 W9        29.99F
FORT COLLINS   FAIR      44  14  29 CALM      29.94F
LONGMONT       FAIR      53   3  13 SW13      29.96
$$

COZ041-046-047-076>085-087-088-200400-
...PIKES PEAK/PALMER DIVIDE AND SOUTHERN FOOTHILLS...

CITY           SKY/WX    TMP DP  RH WIND       PRES   REMARKS
COLO. SPRINGS  MOCLDY    46  14  27 VRB6      30.03F
A. F. ACADEMY  MOCLDY    49  -6  10 NW12G17   30.03S
SCHRIEVER AFB  MOCLDY    43   6  22 NE3       30.02F
CHEYENNE MTN   MOCLDY    46   1  15 CALM      29.98F
ELLICOTT       NOT AVBL
FALCON         FAIR      42   2  19 N8        30.05R
FORT CARSON    FAIR      42  17  36 CALM      29.99F
LIMON          FAIR      22  16  78 N8        30.00S WCI  12
MONUMENT HILL  FAIR      34  12  40 W9        30.06S WCI  26
CANON CITY     FAIR      43  10  26 W6        30.04R
WALSENBURG     FAIR      43   9  24 CALM      30.06R
TRINIDAD       FAIR      36  19  50 NW12      30.04R
$$

COZ042>045-048>051-090-091-200400-
...NORTHEAST COLORADO...

CITY           SKY/WX    TMP DP  RH WIND       PRES   REMARKS
GREELEY ARPT   FAIR      36  23  59 SE8       29.93F
AKRON          FAIR      44  12  27 SW15      29.94S
BURLINGTON     FAIR      33  15  47 SW12      29.96F WCI  24
WRAY           NOT AVBL
YUMA           FAIR      34  19  55 SW13      29.92S WCI  25
STERLING       FAIR      32  23  69 CALM      29.93R
HOLYOKE        FAIR      36  14  41 W9        29.91S
FORT MORGAN    FAIR      42  16  34 W3        29.95R
$$

COZ086-089-092>099-200400-
...SOUTHEAST COLORADO...

CITY           SKY/WX    TMP DP  RH WIND       PRES   REMARKS
PUEBLO         FAIR      44  14  29 S5        29.98S
LA JUNTA       FAIR      39  19  44 SW6       29.96S
LAMAR          FAIR      32  13  45 SW5       29.94F WCI  27
SPRINGFIELD      N/A     33  16  49 SW9       29.99F WCI  25
$$




USA.gov is the U.S. government's official web portal to all federal, state and local government web resources and services.